Regional Weather Roundup
Issued by NWS Sterling, VA

Home | Current Version | Previous Version | Text Only | Print | Product List | Glossary Off
Versions: 1 2 3 4 5 6 7 8 9 10 11 12 13 14 15 16 17 18 19 20 21 22 23 24 25 26 27 28 29 30 31 32 33 34 35 36 37 38 39 40 41 42 43 44 45 46 47 48

000
ASUS41 KLWX 050710
RWRLWX

REGIONAL WEATHER ROUNDUP
NATIONAL WEATHER SERVICE BALTIMORE MD/WASHINGTON DC
200 AM EST THU MAR 05 2015

Note: "FAIR" indicates few or no clouds below 12,000 feet
with no significant weather and/or obstructions to visibility.
 TC=TEMPERATURE CELSIUS

 * =Non NWS site. Station does not report precipitation (e.g. rain,
    snow, etc.), thunder, or fog.

DCZ001-MDZ009-015-VAZ040>042-051-053>054-050800-
WASHINGTON METRO

CITY           SKY/WX    TMP DP  RH WIND       PRES   REMARKS
WASHINGTON NAT LGT RAIN  43  38  82 NW8       30.00R FOG
DULLES         LGT RAIN  38  35  89 N12       29.98R
ANDREWS AFB    LGT RAIN  41  41 100 NW9       29.98R
FT BELVOIR     LGT RAIN  41  38  91 VRB5      30.00R
QUANTICO       LGT RAIN  41  38  89 NE10      30.00R
COLLEGE PARK*  CLOUDY    41  41 100 CALM      29.99R
LEESBURG*      RAIN      37  37 100 N9        30.00S
MANASSAS*      CLOUDY    39  37  93 N8        29.99R
GAITHERSBURG*  CLOUDY    37  34  87 N3        30.01F

$$

MDZ006>007-011-014-050800-
BALTIMORE METRO

CITY           SKY/WX    TMP DP  RH WIND       PRES   REMARKS
BWI AIRPORT    LGT RAIN  39  38  96 NW6       29.98R FOG
MD SCIENCE CTR   N/A     42  38  85 MISG      29.98R
MARTIN STATE   DRIZZLE   37  37 100 NW7       30.00R
ANNAPOLIS      LGT RAIN  40  39  97 NW5       29.99R FOG
FORT MEADE*    CLOUDY    37  36  93 NW6       30.01R

$$

MDZ012-015-019>023-050800-
MARYLAND EASTERN SHORE

CITY           SKY/WX    TMP DP  RH WIND       PRES   REMARKS
OCEAN CITY     LGT RAIN  42  42 100 N8        29.94R
SALISBURY      LGT RAIN  46  43  89 N8        29.94R FOG
BAY BRIDGE AP* LGT RAIN  36  36 100 N3        30.00R
CAMBRIDGE*     CLOUDY    43  41  93 N7        29.97R
EASTON*        LGT RAIN  42  42 100 N9        30.01R

$$

MDZ017>025-050800-
SOUTHERN MARYLAND

CITY           SKY/WX    TMP DP  RH WIND       PRES   REMARKS
PATUXENT RIVER LGT RAIN  42  41  96 N9        29.96R FOG
ST INIGOES     LGT RAIN  44  41  89 N9        29.93S FOG
LEONARDTOWN*   CLOUDY    43  41  93 CALM      29.99R

$$

MDZ003>005-050800-
NORTH CENTRAL MARYLAND

CITY           SKY/WX    TMP DP  RH WIND       PRES   REMARKS
FREDERICK*     LGT RAIN  37  32  81 NW3       30.02F
HAGERSTOWN APT LGT RAIN  35  32  88 NW3       29.98S FOG
WESTMINSTER*   RAIN      34  34 100 NW5       29.96F

$$

MDZ501>502-050800-
WESTERN MARYLAND

CITY           SKY/WX    TMP DP  RH WIND       PRES   REMARKS
OAKLAND*       FOG       23 N/A N/A NW7       29.96R VSB 1
CUMBERLAND*    CLOUDY    36  28  75 N8        30.08R

$$

VAZ025>031-050800-
SHENANDOAH VALLEY

CITY           SKY/WX    TMP DP  RH WIND       PRES   REMARKS
WINCHESTER*    LGT RAIN  37  32  81 NW7       29.99S
FRONT ROYAL*   CLOUDY    37  36  93 NE6       29.97F
LURAY*         LGT RAIN  41  41 100 NE9       29.95F
NEW MARKET*    CLOUDY    39  38  98 NE5       29.95S
STAUNTON*      RAIN      43  42  96 N5        29.94F
WAYNESBORO*    CLOUDY    44  44 100 N5        29.91F

$$

WVZ021-048>050-054>055-050800-
EASTERN WEST VIRGINIA PANHANDLE

CITY           SKY/WX    TMP DP  RH WIND       PRES   REMARKS
MARTINSBURG    LGT RAIN  37  33  85 N3        30.00S
PETERSBURG*    NOT AVBL

$$

VAZ036>039-050-050800-
CENTRAL FOOTHILLS

CITY           SKY/WX    TMP DP  RH WIND       PRES   REMARKS
CHARLOTTESVILL LGT RAIN  44  43  96 NE9       29.93F FOG
CULPEPER*      LGT RAIN  43  43 100 NE5       29.97F
ORANGE*        HVY RAIN  43  43 100 N8        29.97S
GORDONSVILLE*  CLOUDY    42  42  99 NE7       29.94S FOG
WARRENTON*     DRIZZLE   41  41 100 NE6       29.97S

$$

VAZ055>057-050800-
NORTH AND CENTRAL PIEDMONT

CITY           SKY/WX    TMP DP  RH WIND       PRES   REMARKS
FREDERICKSBRG* DRIZZLE   44  44 100 N10       29.97S
STAFFORD*      RAIN      41  32  70 N10G16    30.02S

$$

NCZ024-NYZ072-PAZ021-071-VAZ022-071-050800-
OTHER REGIONAL OBSERVATIONS

CITY           SKY/WX    TMP DP  RH WIND       PRES   REMARKS
NEW YORK CITY  LGT RAIN  38  35  89 VRB3      29.92R FOG
PHILADELPHIA   LGT RAIN  39  36  89 NW6       29.97R
PITTSBURGH     FLURRIES  26  20  77 NW13      30.09S WCI  15
ROANOKE        LGT RAIN  46  43  89 N7        29.95R
RICHMOND       LGT RAIN  52  49  89 N12       29.92S FOG
RALEIGH        MOCLDY    66  58  75 SW16      29.88S

$$

ANZ530>537-050800-
MARINE OBSERVATIONS

STATION/POSITION TIME  TEMP    WIND        PRES
                       AIR SEA DIR/SP/G
                 (UTC) (F)     (DEG/KT/KT) (MB)
THOMAS PT LIGHT  0700   40 32  340/  7/  7 1016.7R
BALT KEY BRIDGE  0600   41     330/  2/  2 1014.3R
COVE POINT       0600   37     350/ 13/ 13 1013.8S
LEWISETTA        0600   43 34  350/  3/  5 1013.6R
SOLOMONS ISLAND  0600      33                N/A

$$




USA.gov is the U.S. government's official web portal to all federal, state and local government web resources and services.